Stündliche Wetter Baroncea

Heute, 22 Oktober, Donnerstag

Zeit Temperatur Niederschläge Wind Luftdruck Luftfeuchtigkeit
00:00 +11°C° 0 mm 1 m/S 754 mmHg 57%
01:00 +11°C° 0 mm 1 m/S 754 mmHg 58%
02:00 +10°C° 0 mm 0 m/S 754 mmHg 60%
03:00 +10°C° 0 mm 0 m/S 754 mmHg 60%
04:00 +10°C° 0 mm 1 m/S 754 mmHg 60%
05:00 +10°C° 0 mm 1 m/S 753 mmHg 60%
06:00 +11°C° 0 mm 1 m/S 754 mmHg 58%
07:00 +10°C° 0 mm 0 m/S 754 mmHg 57%
08:00 +11°C° 0 mm 0 m/S 754 mmHg 55%
09:00 +12°C° 0 mm 0 m/S 754 mmHg 49%
10:00 +15°C° 0 mm 1 m/S 754 mmHg 43%
11:00 +18°C° 0 mm 1 m/S 755 mmHg 37%
12:00 +19°C° 0 mm 1 m/S 754 mmHg 35%
13:00 +20°C° 0 mm 1 m/S 754 mmHg 33%
14:00 +21°C° 0 mm 1 m/S 754 mmHg 30%
15:00 +20°C° 0 mm 1 m/S 754 mmHg 34%
16:00 +19°C° 0 mm 1 m/S 754 mmHg 37%
17:00 +18°C° 0 mm 1 m/S 754 mmHg 40%
18:00 +16°C° 0 mm 1 m/S 754 mmHg 41%
19:00 +16°C° 0 mm 1 m/S 754 mmHg 42%
20:00 +14°C° 0 mm 0 m/S 754 mmHg 43%
21:00 +14°C° 0 mm 0 m/S 754 mmHg 43%
22:00 +13°C° 0 mm 0 m/S 754 mmHg 43%
23:00 +13°C° 0 mm 0 m/S 754 mmHg 44%

Morgen, 23 Oktober, Freitag

Zeit Temperatur Niederschläge Wind Luftdruck Luftfeuchtigkeit
00:00 +13°C° 0 mm 0 m/S 754 mmHg 44%
01:00 +12°C° 0 mm 0 m/S 754 mmHg 45%
02:00 +12°C° 0 mm 0 m/S 754 mmHg 46%
03:00 +12°C° 0 mm 0 m/S 754 mmHg 47%
04:00 +11°C° 0 mm 0 m/S 753 mmHg 48%
05:00 +11°C° 0 mm 0 m/S 753 mmHg 49%
06:00 +11°C° 0 mm 0 m/S 753 mmHg 49%
07:00 +12°C° 0 mm 0 m/S 753 mmHg 49%
08:00 +12°C° 0 mm 0 m/S 753 mmHg 50%
09:00 +14°C° 0 mm 1 m/S 753 mmHg 46%
10:00 +16°C° 0 mm 1 m/S 752 mmHg 42%
11:00 +17°C° 0 mm 2 m/S 752 mmHg 38%
12:00 +18°C° 0 mm 2 m/S 752 mmHg 38%
13:00 +19°C° 0 mm 2 m/S 751 mmHg 38%
14:00 +20°C° 0 mm 2 m/S 751 mmHg 38%
15:00 +19°C° 0 mm 2 m/S 751 mmHg 41%
16:00 +18°C° 0 mm 2 m/S 751 mmHg 45%
17:00 +18°C° 0 mm 1 m/S 750 mmHg 48%
18:00 +16°C° 0 mm 1 m/S 750 mmHg 50%
19:00 +15°C° 0 mm 0 m/S 750 mmHg 51%
20:00 +14°C° 0 mm 0 m/S 750 mmHg 53%
21:00 +14°C° 0 mm 0 m/S 750 mmHg 54%
22:00 +14°C° 0 mm 0 m/S 750 mmHg 54%
23:00 +13°C° 0 mm 0 m/S 750 mmHg 55%

übermorgen, 24 Oktober, Samstag

Zeit Temperatur Niederschläge Wind Luftdruck Luftfeuchtigkeit
00:00 +13°C° 0 mm 0 m/S 750 mmHg 56%
01:00 +13°C° 0 mm 0 m/S 750 mmHg 57%
02:00 +14°C° 0 mm 1 m/S 750 mmHg 58%
03:00 +14°C° 0 mm 1 m/S 750 mmHg 60%
04:00 +12°C° 0 mm 0 m/S 750 mmHg 62%
05:00 +12°C° 0 mm 0 m/S 750 mmHg 64%
06:00 +12°C° 0 mm 0 m/S 750 mmHg 64%
07:00 +13°C° 0 mm 0 m/S 750 mmHg 63%
08:00 +13°C° 0 mm 0 m/S 750 mmHg 63%
09:00 +15°C° 0 mm 1 m/S 750 mmHg 59%
10:00 +18°C° 0 mm 1 m/S 750 mmHg 54%
11:00 +18°C° 0 mm 2 m/S 749 mmHg 49%
12:00 +19°C° 0 mm 2 m/S 749 mmHg 46%
13:00 +20°C° 0 mm 2 m/S 749 mmHg 44%
14:00 +21°C° 0 mm 3 m/S 749 mmHg 41%
15:00 +20°C° 0 mm 2 m/S 749 mmHg 44%
16:00 +19°C° 0 mm 2 m/S 749 mmHg 46%
17:00 +18°C° 0 mm 2 m/S 749 mmHg 49%
18:00 +17°C° 0 mm 2 m/S 750 mmHg 53%
19:00 +17°C° 0 mm 3 m/S 750 mmHg 57%
20:00 +16°C° 0 mm 3 m/S 751 mmHg 61%
21:00 +14°C° 0 mm 4 m/S 751 mmHg 66%
22:00 +14°C° 0 mm 4 m/S 751 mmHg 71%
23:00 +13°C° 0 mm 4 m/S 751 mmHg 76%

, 25 Oktober, Sonntag

Zeit Temperatur Niederschläge Wind Luftdruck Luftfeuchtigkeit
00:00 +13°C° 0 mm 3 m/S 751 mmHg 81%
01:00 +13°C° 0 mm 3 m/S 752 mmHg 85%
02:00 +12°C° 0 mm 3 m/S 752 mmHg 89%
03:00 +12°C° 0 mm 3 m/S 752 mmHg 89%
04:00 +12°C° 0 mm 3 m/S 753 mmHg 90%
05:00 +12°C° 0 mm 3 m/S 753 mmHg 91%
06:00 +12°C° 0 mm 3 m/S 753 mmHg 87%
07:00 +12°C° 0 mm 3 m/S 754 mmHg 84%
08:00 +12°C° 0 mm 3 m/S 754 mmHg 80%
09:00 +13°C° 0 mm 3 m/S 754 mmHg 74%
10:00 +14°C° 0 mm 3 m/S 754 mmHg 69%
11:00 +16°C° 0 mm 3 m/S 754 mmHg 63%
12:00 +17°C° 0 mm 3 m/S 754 mmHg 60%
13:00 +18°C° 0 mm 3 m/S 754 mmHg 56%
14:00 +18°C° 0 mm 3 m/S 754 mmHg 53%
15:00 +18°C° 0 mm 3 m/S 754 mmHg 56%
16:00 +17°C° 0 mm 2 m/S 754 mmHg 59%
17:00 +16°C° 0 mm 2 m/S 753 mmHg 62%
18:00 +15°C° 0 mm 2 m/S 754 mmHg 65%
19:00 +15°C° 0 mm 2 m/S 754 mmHg 68%
20:00 +14°C° 0 mm 2 m/S 754 mmHg 71%
21:00 +14°C° 0 mm 1 m/S 754 mmHg 73%
22:00 +13°C° 0 mm 1 m/S 754 mmHg 75%
23:00 +13°C° 0 mm 1 m/S 754 mmHg 77%

25 Oktober, Sonntag

Zeit Temperatur Niederschläge Wind Luftdruck Luftfeuchtigkeit
00:00 +13°C° 0 mm 3 m/S 751 mmHg 81%
01:00 +13°C° 0 mm 3 m/S 752 mmHg 85%
02:00 +12°C° 0 mm 3 m/S 752 mmHg 89%
03:00 +12°C° 0 mm 3 m/S 752 mmHg 89%
04:00 +12°C° 0 mm 3 m/S 753 mmHg 90%
05:00 +12°C° 0 mm 3 m/S 753 mmHg 91%
06:00 +12°C° 0 mm 3 m/S 753 mmHg 87%
07:00 +12°C° 0 mm 3 m/S 754 mmHg 84%
08:00 +12°C° 0 mm 3 m/S 754 mmHg 80%
09:00 +13°C° 0 mm 3 m/S 754 mmHg 74%
10:00 +14°C° 0 mm 3 m/S 754 mmHg 69%
11:00 +16°C° 0 mm 3 m/S 754 mmHg 63%
12:00 +17°C° 0 mm 3 m/S 754 mmHg 60%
13:00 +18°C° 0 mm 3 m/S 754 mmHg 56%
14:00 +18°C° 0 mm 3 m/S 754 mmHg 53%
15:00 +18°C° 0 mm 3 m/S 754 mmHg 56%
16:00 +17°C° 0 mm 2 m/S 754 mmHg 59%
17:00 +16°C° 0 mm 2 m/S 753 mmHg 62%
18:00 +15°C° 0 mm 2 m/S 754 mmHg 65%
19:00 +15°C° 0 mm 2 m/S 754 mmHg 68%
20:00 +14°C° 0 mm 2 m/S 754 mmHg 71%
21:00 +14°C° 0 mm 1 m/S 754 mmHg 73%
22:00 +13°C° 0 mm 1 m/S 754 mmHg 75%
23:00 +13°C° 0 mm 1 m/S 754 mmHg 77%

26 Oktober, Montag

Zeit Temperatur Niederschläge Wind Luftdruck Luftfeuchtigkeit
00:00 +12°C° 0 mm 2 m/S 754 mmHg 79%
01:00 +12°C° 0 mm 2 m/S 754 mmHg 81%
02:00 +12°C° 0 mm 2 m/S 754 mmHg 84%
03:00 +12°C° 0 mm 2 m/S 754 mmHg 83%
04:00 +12°C° 0 mm 2 m/S 754 mmHg 83%
05:00 +12°C° 0 mm 2 m/S 754 mmHg 82%
06:00 +11°C° 0 mm 3 m/S 754 mmHg 82%
07:00 +11°C° 0 mm 3 m/S 754 mmHg 81%
08:00 +12°C° 0 mm 4 m/S 754 mmHg 80%
09:00 +13°C° 0 mm 4 m/S 753 mmHg 76%
10:00 +14°C° 0 mm 4 m/S 753 mmHg 73%
11:00 +15°C° 0 mm 5 m/S 753 mmHg 70%
12:00 +15°C° 0 mm 5 m/S 753 mmHg 68%
13:00 +16°C° 0 mm 5 m/S 752 mmHg 66%
14:00 +17°C° 0 mm 5 m/S 752 mmHg 64%
15:00 +17°C° 0 mm 4 m/S 752 mmHg 67%
16:00 +17°C° 0 mm 3 m/S 752 mmHg 71%
17:00 +16°C° 0 mm 3 m/S 751 mmHg 74%
18:00 +16°C° 0.2 mm 3 m/S 751 mmHg 77%
19:00 +16°C° 0.2 mm 3 m/S 751 mmHg 79%
20:00 +14°C° 0.2 mm 3 m/S 751 mmHg 82%
21:00 +16°C° 0.1 mm 3 m/S 751 mmHg 80%
22:00 +15°C° 0.1 mm 4 m/S 751 mmHg 79%
23:00 +15°C° 0.1 mm 4 m/S 751 mmHg 77%

27 Oktober, Dienstag

Zeit Temperatur Niederschläge Wind Luftdruck Luftfeuchtigkeit
00:00 +14°C° 0.2 mm 4 m/S 751 mmHg 79%
01:00 +14°C° 0.2 mm 4 m/S 751 mmHg 82%
02:00 +14°C° 0.2 mm 4 m/S 751 mmHg 84%
03:00 +14°C° 0 mm 4 m/S 751 mmHg 85%
04:00 +14°C° 0 mm 4 m/S 751 mmHg 87%
05:00 +14°C° 0 mm 4 m/S 751 mmHg 88%
06:00 +14°C° 0 mm 4 m/S 751 mmHg 88%
07:00 +14°C° 0 mm 4 m/S 751 mmHg 88%
08:00 +14°C° 0 mm 3 m/S 752 mmHg 88%
09:00 +15°C° 0 mm 4 m/S 752 mmHg 86%
10:00 +17°C° 0 mm 4 m/S 752 mmHg 83%
11:00 +18°C° 0 mm 4 m/S 752 mmHg 80%
12:00 +18°C° 0 mm 4 m/S 751 mmHg 77%
13:00 +19°C° 0 mm 4 m/S 751 mmHg 73%
14:00 +20°C° 0 mm 4 m/S 751 mmHg 70%
15:00 +19°C° 0 mm 3 m/S 751 mmHg 72%
16:00 +19°C° 0 mm 3 m/S 751 mmHg 75%
17:00 +18°C° 0 mm 3 m/S 751 mmHg 78%
18:00 +18°C° 0 mm 3 m/S 751 mmHg 80%
19:00 +17°C° 0 mm 3 m/S 751 mmHg 81%
20:00 +17°C° 0 mm 3 m/S 751 mmHg 83%
21:00 +16°C° 0 mm 3 m/S 751 mmHg 82%
22:00 +15°C° 0 mm 4 m/S 751 mmHg 80%
23:00 +15°C° 0 mm 4 m/S 751 mmHg 79%
Mehr zeigen